Temp
37 37 36 36 35 34 34 33 33 32 32 32 31 32 32 32 32 32 32 33 33 34 34 34 34 33 33 32 31 30 29 29 29 29 28 28 27 26 25 25 24 23
37 38 38 37 36 36 36 35 33 32 32 32 32 32 32 32 31 32 31 32 33 34 34 34 33 33 32 31 31 29 29 29 28 29 27 27 26 26 26 25 24 23
37 37 36 36 36 35 35 35 34 33 32 32 32 31 31 32 31 31 31 31 32 33 33 33 33 32 32 31 30 29 28 28 27 27 27 26 26 25 26 25 24 23
37 37 36 36 36 36 36 34 34 34 33 31 31 31 31 31 31 31 31 32 32 32 33 32 32 32 31 30 29 28 28 28 27 27 26 26 25 25 25 25 24 23
37 37 37 37 37 36 36 34 34 34 33 33 32 31 30 30 30 30 30 31 32 32 32 31 31 31 31 29 29 27 28 27 27 26 26 25 25 25 24 24 23 22
37 37 37 36 37 36 35 34 34 34 34 32 32 32 30 30 29 29 30 31 32 32 32 31 30 31 30 29 27 27 27 26 27 26 25 25 24 24 23 23 22 21
37 37 37 37 36 36 35 35 34 34 33 33 32 30 30 30 29 29 30 31 31 31 32 30 30 29 29 29 28 27 27 26 26 26 25 25 25 23 23 22 21 20
37 37 37 36 36 36 36 35 34 33 33 33 31 31 30 30 29 30 30 31 31 31 31 31 30 29 29 28 27 26 25 26 26 25 25 24 23 22 21 21 21 19
36 36 36 36 35 36 36 36 35 34 34 33 32 31 31 30 29 30 31 30 30 31 31 30 30 29 29 28 27 26 25 25 26 25 24 23 21 21 21 21 20 19
35 35 35 35 35 35 35 36 36 35 34 33 32 31 31 31 30 30 30 30 30 30 30 30 29 29 29 28 27 26 25 25 25 25 23 23 22 21 21 20 19 19
34 34 33 34 34 35 35 35 35 35 34 33 32 32 31 31 31 30 30 30 30 30 30 29 29 29 28 27 27 27 27 26 25 24 23 22 22 21 22 20 19 19
33 33 33 33 33 33 34 34 35 34 34 33 32 32 32 31 30 30 30 30 30 30 30 29 29 28 28 27 27 27 26 25 25 23 22 22 22 21 21 21 20 19
32 33 33 33 33 33 33 33 33 33 33 33 33 32 32 31 30 30 30 30 30 30 30 29 29 28 28 28 27 26 25 24 24 23 22 22 22 21 21 21 20 20
32 33 33 33 33 33 33 33 33 33 33 33 33 32 31 30 30 30 30 30 30 29 29 29 28 27 28 27 26 25 24 24 23 22 22 21 21 21 21 20 20 20
32 33 33 32 32 32 32 32 33 33 33 33 33 32 31 30 30 30 29 29 29 29 28 29 27 27 27 27 25 24 24 23 23 22 22 21 21 21 20 20 19 19
32 32 32 32 32 32 32 32 32 33 33 34 33 32 31 31 30 29 28 28 27 27 27 27 27 27 28 29 29 25 23 23 23 22 22 21 21 20 20 20 19 19
32 32 31 31 31 31 31 32 33 34 34 34 33 32 31 30 29 28 28 27 27 26 25 26 26 27 29 30 31 30 25 23 22 22 22 21 21 20 19 19 19 19
32 31 31 31 32 32 32 33 33 33 33 33 33 32 31 30 28 28 28 27 27 26 25 25 26 28 30 31 31 31 28 23 23 22 22 21 21 20 20 19 19 18
32 32 32 32 33 33 33 33 33 33 33 33 33 32 31 29 28 27 27 27 27 26 25 25 25 28 30 31 31 32 31 26 23 22 21 21 21 21 20 19 19 17
32 32 32 33 33 33 33 33 33 33 33 34 33 31 30 29 28 27 27 27 26 26 25 25 25 27 30 31 31 32 32 28 22 22 22 21 21 21 21 20 19 18
33 33 32 32 33 33 33 32 32 32 33 33 33 31 30 28 28 27 27 26 26 26 25 25 25 28 30 31 31 32 32 31 23 23 22 21 21 21 21 20 20 19
33 32 32 32 32 32 32 32 32 32 32 33 33 32 30 29 28 27 27 26 26 26 25 24 25 29 30 30 31 32 32 30 23 22 21 21 21 21 21 21 20 19
33 32 32 32 32 31 31 31 32 32 33 33 32 31 30 29 28 27 27 26 26 25 24 24 24 28 30 30 31 32 30 28 23 21 21 20 20 21 21 21 20 19
33 32 31 31 31 31 31 32 32 32 32 33 31 30 30 30 28 27 26 26 25 25 25 24 24 26 29 30 31 31 30 27 24 20 20 20 19 20 20 20 20 22
33 32 32 31 31 31 31 31 31 31 32 33 32 30 29 29 28 26 25 25 25 25 26 25 24 25 28 29 30 31 30 27 25 21 20 19 19 19 20 19 19 22
33 32 32 31 31 31 31 30 31 31 31 31 32 30 28 28 27 25 24 24 25 25 25 25 24 24 26 29 30 31 31 28 26 23 20 19 19 19 18 18 18 19
MSLP
1011.52 1011.08 1010.56 1010.12 1009.84 1009.60 1009.28 1009.04 1008.76 1008.56 1008.28 1008.20 1008.12 1007.92 1007.88 1007.60 1007.76 1008.00 1008.12 1008.32 1008.36 1008.36 1008.44 1008.60 1008.80 1009.04 1009.28 1009.60 1009.84 1010.12 1010.44 1010.72 1011.04 1011.44 1011.92 1012.32 1012.68 1013.04 1013.48 1013.92 1014.28 1014.56
1011.04 1010.72 1010.28 1009.80 1009.36 1009.04 1008.84 1008.68 1008.44 1008.32 1008.00 1007.80 1007.68 1007.52 1007.40 1007.36 1007.24 1007.36 1007.64 1007.84 1007.88 1007.84 1007.84 1008.00 1008.32 1008.56 1008.88 1009.20 1009.48 1009.84 1010.20 1010.52 1010.84 1011.20 1011.72 1012.08 1012.32 1012.72 1013.00 1013.40 1013.84 1014.24
1010.52 1010.20 1009.92 1009.60 1009.16 1008.72 1008.44 1008.12 1008.04 1007.84 1007.72 1007.44 1007.36 1007.20 1007.04 1006.96 1006.88 1006.84 1007.04 1007.32 1007.44 1007.40 1007.44 1007.48 1007.68 1008.08 1008.48 1008.76 1009.12 1009.40 1009.68 1010.08 1010.48 1010.92 1011.36 1011.64 1011.96 1012.36 1012.64 1013.08 1013.56 1013.92
1010.00 1009.76 1009.44 1009.08 1008.76 1008.44 1008.08 1007.84 1007.48 1007.32 1007.12 1007.12 1007.04 1006.88 1006.72 1006.56 1006.44 1006.40 1006.44 1006.72 1006.96 1007.00 1007.04 1007.08 1007.24 1007.68 1008.04 1008.36 1008.72 1009.04 1009.24 1009.56 1009.88 1010.44 1010.96 1011.36 1011.72 1012.08 1012.48 1012.88 1013.28 1013.72
1009.56 1009.20 1008.88 1008.56 1008.24 1007.96 1007.80 1007.56 1007.20 1006.92 1006.76 1006.60 1006.60 1006.56 1006.52 1006.32 1006.12 1006.04 1006.04 1006.12 1006.40 1006.64 1006.72 1006.80 1006.96 1007.08 1007.44 1007.92 1008.36 1008.84 1009.12 1009.48 1009.84 1010.24 1010.60 1011.04 1011.44 1011.68 1012.08 1012.52 1012.88 1013.28
1009.08 1008.76 1008.40 1008.16 1007.92 1007.72 1007.52 1007.32 1007.00 1006.68 1006.44 1006.32 1006.16 1006.12 1006.12 1005.96 1005.80 1005.64 1005.56 1005.64 1005.76 1006.08 1006.32 1006.48 1006.60 1006.72 1007.12 1007.56 1008.00 1008.36 1008.68 1009.12 1009.44 1009.88 1010.28 1010.60 1011.00 1011.20 1011.64 1012.12 1012.52 1012.88
1008.64 1008.28 1008.00 1007.76 1007.56 1007.36 1007.20 1006.92 1006.68 1006.40 1006.12 1005.88 1005.76 1005.76 1005.64 1005.60 1005.48 1005.32 1005.20 1005.12 1005.20 1005.40 1005.72 1006.08 1006.28 1006.56 1006.80 1007.16 1007.56 1007.88 1008.24 1008.48 1008.84 1009.28 1009.76 1010.16 1010.52 1010.92 1011.36 1011.84 1012.16 1012.48
1008.16 1007.92 1007.72 1007.48 1007.24 1006.96 1006.72 1006.44 1006.20 1005.92 1005.64 1005.40 1005.36 1005.12 1005.20 1005.12 1005.04 1005.00 1004.96 1004.84 1004.76 1004.84 1005.12 1005.52 1005.88 1006.16 1006.40 1006.72 1007.04 1007.44 1007.84 1008.20 1008.52 1008.88 1009.28 1009.68 1010.12 1010.52 1011.00 1011.44 1011.88 1012.28
1007.80 1007.56 1007.36 1007.12 1006.88 1006.56 1006.24 1005.92 1005.64 1005.36 1005.12 1004.96 1004.72 1004.64 1004.60 1004.68 1004.56 1004.48 1004.44 1004.48 1004.40 1004.32 1004.52 1004.92 1005.36 1005.80 1006.04 1006.32 1006.60 1006.92 1007.28 1007.72 1007.92 1008.24 1008.60 1009.08 1009.56 1009.96 1010.44 1010.96 1011.52 1011.92
1007.48 1007.16 1006.88 1006.60 1006.40 1006.08 1005.80 1005.48 1005.16 1004.88 1004.60 1004.44 1004.20 1004.12 1004.12 1004.04 1004.12 1004.04 1004.00 1004.00 1004.00 1003.96 1004.00 1004.28 1004.84 1005.28 1005.60 1005.84 1006.08 1006.44 1006.80 1007.04 1007.36 1007.76 1008.12 1008.44 1008.84 1009.32 1009.88 1010.52 1011.04 1011.56
1007.00 1006.76 1006.48 1006.16 1005.88 1005.60 1005.28 1005.00 1004.72 1004.36 1004.08 1003.84 1003.64 1003.52 1003.44 1003.56 1003.60 1003.68 1003.68 1003.56 1003.52 1003.52 1003.56 1003.76 1004.12 1004.60 1005.04 1005.44 1005.68 1005.92 1006.20 1006.48 1006.80 1007.20 1007.60 1008.00 1008.36 1008.76 1009.16 1009.76 1010.40 1010.88
1006.40 1006.20 1005.96 1005.72 1005.48 1005.20 1004.88 1004.56 1004.24 1003.92 1003.60 1003.32 1003.20 1003.04 1002.88 1002.96 1003.08 1003.16 1003.16 1003.04 1002.92 1002.92 1003.00 1003.08 1003.44 1003.92 1004.44 1004.88 1005.24 1005.56 1005.84 1006.04 1006.32 1006.72 1007.12 1007.56 1007.96 1008.28 1008.60 1009.12 1009.76 1010.28
1006.24 1005.96 1005.72 1005.48 1005.16 1004.84 1004.52 1004.20 1003.84 1003.48 1003.16 1002.88 1002.60 1002.60 1002.52 1002.48 1002.48 1002.56 1002.52 1002.52 1002.40 1002.44 1002.52 1002.60 1002.84 1003.32 1003.88 1004.40 1004.88 1005.24 1005.48 1005.72 1006.00 1006.44 1006.84 1007.24 1007.60 1007.88 1008.12 1008.48 1009.04 1009.64
1006.04 1005.76 1005.48 1005.12 1004.80 1004.48 1004.16 1003.76 1003.36 1003.00 1002.72 1002.44 1002.28 1002.16 1002.08 1002.00 1002.00 1002.00 1001.92 1002.04 1001.96 1002.04 1002.04 1002.20 1002.40 1002.72 1003.24 1003.80 1004.40 1004.84 1005.20 1005.48 1005.76 1006.12 1006.52 1006.92 1007.24 1007.56 1007.76 1008.04 1008.44 1008.96
1005.60 1005.32 1005.00 1004.68 1004.36 1004.04 1003.68 1003.28 1002.88 1002.52 1002.24 1002.00 1001.84 1001.68 1001.60 1001.52 1001.48 1001.56 1001.60 1001.68 1001.68 1001.76 1001.88 1001.96 1002.12 1002.28 1002.68 1003.24 1003.92 1004.52 1004.88 1005.16 1005.44 1005.80 1006.16 1006.56 1006.96 1007.28 1007.52 1007.76 1008.08 1008.48
1005.08 1004.80 1004.48 1004.20 1003.92 1003.56 1003.16 1002.80 1002.44 1002.08 1001.80 1001.52 1001.28 1001.16 1001.16 1001.08 1001.12 1001.12 1001.20 1001.20 1001.28 1001.44 1001.68 1001.80 1001.84 1001.96 1002.24 1002.68 1003.20 1003.80 1004.36 1004.72 1005.12 1005.44 1005.76 1006.12 1006.52 1006.92 1007.24 1007.44 1007.64 1007.96
1004.56 1004.24 1003.96 1003.68 1003.36 1003.08 1002.72 1002.32 1001.96 1001.64 1001.36 1001.08 1000.84 1000.68 1000.72 1000.72 1000.76 1000.76 1000.68 1000.68 1000.84 1001.08 1001.40 1001.64 1001.68 1001.76 1001.92 1002.20 1002.56 1003.12 1003.76 1004.28 1004.64 1005.08 1005.44 1005.80 1006.16 1006.48 1006.76 1007.04 1007.32 1007.60
1004.00 1003.64 1003.36 1003.04 1002.80 1002.44 1002.08 1001.76 1001.48 1001.24 1001.00 1000.68 1000.44 1000.32 1000.24 1000.32 1000.40 1000.28 1000.24 1000.28 1000.44 1000.68 1000.96 1001.20 1001.44 1001.52 1001.64 1001.80 1002.08 1002.48 1003.08 1003.72 1004.16 1004.60 1005.08 1005.40 1005.76 1006.08 1006.36 1006.64 1006.92 1007.28
1003.44 1003.12 1002.80 1002.44 1002.16 1001.88 1001.56 1001.28 1001.08 1000.84 1000.52 1000.28 1000.04 999.84 999.88 999.92 999.84 999.84 999.84 999.88 1000.04 1000.20 1000.40 1000.68 1001.00 1001.20 1001.36 1001.52 1001.72 1001.96 1002.32 1003.08 1003.68 1004.16 1004.60 1005.00 1005.36 1005.68 1005.96 1006.28 1006.56 1006.92
1002.88 1002.60 1002.28 1001.88 1001.60 1001.32 1001.12 1000.92 1000.72 1000.44 1000.08 999.80 999.60 999.52 999.56 999.44 999.40 999.44 999.40 999.52 999.60 999.72 999.92 1000.16 1000.44 1000.80 1001.00 1001.20 1001.36 1001.52 1001.72 1002.36 1003.16 1003.64 1004.12 1004.56 1004.96 1005.32 1005.52 1005.72 1005.96 1006.44
1002.40 1002.12 1001.80 1001.44 1001.16 1000.88 1000.64 1000.48 1000.32 1000.00 999.64 999.28 999.04 998.96 999.00 999.08 999.00 999.04 998.96 999.04 999.20 999.40 999.56 999.72 1000.00 1000.32 1000.64 1000.80 1000.96 1001.04 1001.24 1001.60 1002.64 1003.16 1003.72 1004.20 1004.68 1005.00 1005.16 1005.24 1005.48 1005.96
1001.92 1001.68 1001.32 1001.04 1000.76 1000.48 1000.28 1000.04 999.80 999.56 999.24 998.88 998.60 998.56 998.56 998.60 998.60 998.60 998.60 998.64 998.80 999.04 999.24 999.44 999.68 999.92 1000.12 1000.36 1000.48 1000.60 1000.84 1001.16 1002.04 1002.76 1003.32 1003.84 1004.44 1004.80 1004.92 1004.96 1005.20 1005.68
1001.44 1001.28 1000.96 1000.60 1000.36 1000.12 999.88 999.60 999.32 999.04 998.80 998.52 998.36 998.32 998.20 998.08 998.08 998.08 998.16 998.32 998.52 998.76 998.96 999.16 999.40 999.48 999.64 999.80 1000.00 1000.20 1000.52 1000.88 1001.64 1002.40 1002.96 1003.52 1004.08 1004.44 1004.64 1004.80 1005.08 1005.60
1000.96 1000.84 1000.60 1000.24 1000.00 999.76 999.44 999.12 998.88 998.60 998.36 998.16 998.08 997.92 997.76 997.60 997.56 997.72 997.88 998.00 998.20 998.44 998.56 998.76 998.96 999.08 999.16 999.36 999.56 999.84 1000.12 1000.60 1001.32 1002.04 1002.56 1003.16 1003.72 1004.12 1004.36 1004.64 1004.96 1005.40
1000.56 1000.40 1000.20 999.92 999.64 999.28 999.04 998.76 998.52 998.28 997.92 997.64 997.52 997.44 997.36 997.24 997.28 997.44 997.60 997.72 997.80 997.92 998.12 998.36 998.60 998.80 998.88 999.04 999.20 999.48 999.76 1000.28 1000.80 1001.64 1002.24 1002.84 1003.36 1003.88 1004.20 1004.52 1004.92 1005.20
1000.16 1000.04 999.76 999.56 999.24 998.84 998.56 998.36 998.16 997.88 997.56 997.24 996.92 996.88 996.96 997.00 997.04 997.12 997.24 997.36 997.48 997.64 997.80 997.92 998.20 998.48 998.64 998.72 998.92 999.12 999.40 999.92 1000.40 1001.04 1001.80 1002.44 1003.04 1003.52 1004.04 1004.40 1004.76 1005.04
Wind_Speed
10 9 9 8 8 7 8 9 8 7 8 7 8 8 8 9 8 9 10 10 11 12 12 12 11 11 10 11 12 13 13 8 9 10 10 8 7 10 8 10 8 7
11 10 10 9 9 8 7 7 8 8 9 8 8 8 7 7 8 9 10 11 12 12 12 12 11 12 11 10 12 15 10 7 10 7 9 10 8 9 9 11 9 6
10 10 10 11 11 12 11 9 7 8 8 9 8 7 8 7 8 8 9 10 11 12 12 11 12 11 11 11 13 13 7 8 8 7 8 10 8 8 8 8 7 9
11 10 10 10 10 11 11 9 10 8 8 8 9 8 7 7 8 9 9 10 10 11 11 11 12 11 11 12 14 15 15 9 6 8 8 6 7 8 8 8 8 7
12 11 9 10 10 10 9 10 11 10 10 10 9 8 7 7 7 8 8 9 10 10 10 11 11 12 12 12 14 12 12 7 8 7 8 10 8 9 7 8 9 9
12 11 10 9 10 10 10 10 11 10 10 10 11 8 7 8 7 8 9 10 10 10 11 10 11 11 12 15 12 7 7 8 9 11 10 12 10 8 6 9 8 10
13 12 12 11 10 10 10 11 10 9 9 9 7 8 8 8 8 9 9 10 11 11 11 11 11 11 11 12 14 14 9 7 8 10 11 10 12 10 9 9 9 7
14 11 11 10 11 11 11 11 10 9 10 8 8 9 7 9 9 9 9 10 11 11 11 11 12 13 13 12 13 13 9 8 12 12 11 12 10 12 10 9 10 11
13 12 11 11 12 12 12 12 11 10 9 9 9 9 7 8 9 9 10 10 11 11 12 12 13 13 12 13 13 13 10 10 11 13 13 13 13 13 12 10 10 10
14 13 13 12 11 11 12 12 12 10 9 9 9 7 8 8 9 10 9 10 11 12 12 13 13 12 13 13 14 14 13 12 14 13 12 13 13 13 12 11 11 10
14 12 12 13 13 12 13 13 12 11 9 10 9 9 8 8 8 8 10 10 11 12 12 13 14 14 13 13 13 12 14 14 14 12 12 12 13 13 12 12 11 11
14 13 13 13 13 12 13 13 12 11 11 10 8 10 10 8 9 9 10 12 12 12 12 13 14 14 14 13 14 13 13 12 12 12 12 12 12 12 12 11 11 11
14 14 14 13 13 12 12 12 12 11 11 11 10 9 10 10 9 10 11 11 12 12 12 12 13 13 13 13 13 12 13 12 12 11 11 11 11 12 12 11 11 11
12 12 12 13 12 11 12 12 12 11 10 10 9 9 10 10 11 11 11 10 11 11 11 11 11 12 12 12 12 12 11 12 11 11 11 11 11 11 11 11 11 11
11 11 10 11 12 12 12 12 12 11 10 10 9 9 9 10 10 10 11 11 11 10 10 9 10 11 11 11 12 12 11 12 12 12 12 12 11 11 10 10 10 10
11 11 11 11 11 12 12 12 11 11 10 10 10 9 9 10 10 10 10 11 11 10 9 9 9 9 12 19 17 12 12 10 10 10 11 11 11 11 10 11 11 10
11 11 11 11 11 11 11 11 12 11 11 11 10 10 10 10 9 10 10 10 10 9 9 9 9 8 18 21 23 22 14 11 11 8 10 11 11 11 12 11 10 10
12 12 11 11 10 11 12 11 11 11 11 11 10 10 10 8 8 10 10 10 9 9 10 10 9 12 19 22 24 25 19 12 9 10 11 11 10 11 10 8 10 8
12 12 12 12 11 11 12 11 11 11 11 10 11 10 8 8 10 9 10 9 9 10 10 10 9 14 21 24 24 24 25 18 10 11 11 10 11 11 10 10 8 6
12 12 13 13 12 12 11 11 10 11 11 10 9 8 8 9 9 10 10 9 10 10 10 9 10 14 21 23 23 24 24 20 10 12 11 10 11 11 10 10 10 10
11 12 13 12 12 12 11 11 10 11 11 10 9 8 7 8 9 9 9 9 9 9 8 9 9 16 21 23 23 24 24 21 10 11 9 9 10 10 10 10 10 9
11 12 13 12 12 12 11 11 11 11 11 11 9 7 6 6 7 7 8 8 9 9 8 9 8 19 21 22 23 21 22 13 9 11 9 9 9 9 9 9 6 6
11 11 12 13 12 12 12 12 12 11 10 9 8 6 8 7 7 7 7 7 8 8 9 9 8 16 21 21 21 21 16 8 8 9 9 10 9 9 9 9 7 7
11 11 11 12 12 12 13 13 12 10 10 7 7 8 8 8 7 6 6 6 8 9 10 9 8 12 19 18 19 20 16 9 7 9 10 10 8 9 8 8 9 17
10 10 11 12 12 12 12 13 12 11 10 8 8 7 8 7 6 6 5 6 7 8 12 11 7 10 17 17 19 19 16 8 7 8 10 9 9 8 8 7 8 13
10 10 11 11 12 12 12 12 10 10 9 10 9 7 6 6 6 5 6 6 6 6 7 8 7 7 11 19 18 18 20 9 7 8 9 10 9 8 8 7 8 8
Wind_Direction
305 306 305 305 300 293 295 298 294 284 273 258 249 247 231 231 215 215 216 217 216 213 209 209 206 204 204 200 197 166 166 172 161 151 175 173 180 174 178 181 178 172
299 300 303 305 304 301 295 291 292 286 282 266 251 250 242 230 218 208 212 214 216 216 209 207 204 203 200 198 192 168 168 171 173 173 164 181 182 181 187 183 183 167
291 294 296 302 305 304 302 298 291 286 280 277 266 250 246 227 224 210 210 211 215 216 211 206 203 201 199 198 191 178 173 168 172 163 176 182 177 183 184 177 176 179
286 282 285 287 290 296 300 300 299 295 291 287 271 259 244 235 220 216 210 209 215 216 212 207 202 199 198 196 188 183 188 181 151 159 172 166 176 178 181 176 184 183
291 289 285 284 286 287 293 296 294 294 290 283 282 268 253 238 226 217 213 212 212 216 213 210 202 202 196 184 185 164 189 163 164 165 179 193 184 181 178 173 182 188
293 290 286 285 286 288 289 285 286 287 287 286 275 272 252 239 229 221 214 214 211 211 213 209 206 206 193 180 171 172 176 169 177 179 189 200 193 175 159 181 177 192
293 295 295 292 288 284 280 279 277 275 275 269 274 265 253 242 231 223 219 217 212 211 211 208 204 202 193 190 193 195 184 168 164 179 192 202 199 184 175 182 190 186
295 294 293 292 291 290 285 280 277 273 272 276 265 265 248 243 231 224 221 220 215 213 211 207 204 199 196 192 195 191 175 181 190 189 192 197 192 193 185 191 194 200
294 292 291 289 289 291 290 288 284 278 273 270 269 267 253 239 236 227 221 218 219 215 210 208 201 200 197 196 198 191 176 177 191 192 193 193 193 195 192 189 195 199
293 295 295 292 288 287 288 289 287 282 275 268 267 261 258 248 236 233 224 219 220 218 213 207 202 200 200 200 200 194 192 185 192 197 195 196 195 192 188 188 194 199
292 294 294 294 292 290 289 289 286 283 278 273 273 270 257 252 246 232 230 223 220 220 215 207 202 202 200 200 201 198 199 198 196 195 195 195 195 192 188 188 190 200
298 299 298 294 291 291 291 291 289 284 279 275 268 270 267 254 245 236 228 227 222 220 216 208 201 202 203 200 200 200 201 199 196 194 194 194 194 193 188 186 190 197
295 296 293 292 289 288 289 286 284 284 282 279 274 263 265 261 248 241 234 228 226 219 216 208 202 201 202 202 201 200 201 199 195 192 193 194 196 195 191 187 188 192
286 286 286 284 283 284 284 284 285 284 280 277 274 268 263 257 252 245 241 230 228 222 218 207 202 200 201 199 199 200 197 199 194 192 191 196 197 197 193 188 187 189
282 282 279 279 281 284 284 284 284 284 284 279 271 266 260 258 254 247 243 235 229 223 217 208 204 202 198 195 194 197 198 197 196 194 193 194 196 197 193 188 187 190
283 281 280 280 282 284 285 285 285 286 287 286 280 268 261 258 254 245 236 231 226 219 216 211 209 204 199 198 194 192 193 194 195 196 192 194 194 195 192 191 190 189
286 282 280 280 281 281 282 283 286 288 286 286 283 274 264 258 249 244 234 227 221 214 211 213 213 205 201 203 203 198 187 191 193 186 192 195 197 193 195 191 188 189
288 287 285 282 284 285 287 287 286 285 284 283 282 276 266 256 247 240 235 226 216 210 210 209 212 208 206 209 211 208 196 188 188 191 193 197 196 195 196 179 183 178
286 289 289 289 289 288 286 287 287 288 286 284 281 272 264 257 248 242 236 223 214 209 208 206 208 209 213 215 213 211 206 191 192 189 194 198 195 196 191 187 181 153
288 288 289 290 291 289 286 286 287 286 285 280 274 267 256 257 255 243 236 222 214 212 208 203 203 205 213 215 214 213 213 198 182 188 194 195 197 194 192 185 181 176
288 288 288 289 289 289 289 287 286 286 286 286 277 264 257 250 248 242 233 223 215 210 207 203 202 202 211 215 216 215 216 211 173 186 186 193 195 195 191 186 178 177
287 286 287 288 288 288 288 289 288 283 285 286 279 271 256 253 252 238 233 222 213 206 205 205 201 206 210 213 216 218 217 216 167 179 182 186 192 192 194 185 157 154
285 283 286 288 287 288 289 289 288 285 282 282 274 261 272 269 260 241 230 221 208 204 202 205 198 207 210 211 214 217 218 210 157 172 180 184 186 191 192 183 164 165
286 284 285 286 287 287 289 288 284 281 282 275 262 268 270 268 254 244 227 213 208 203 202 201 199 202 207 209 212 216 215 202 153 167 173 181 182 185 186 185 180 187
286 283 283 285 285 285 286 286 284 283 282 278 267 252 256 264 252 238 227 205 208 204 201 200 190 196 203 208 212 213 214 194 173 146 172 180 175 177 179 179 186 200
285 284 284 284 285 285 285 282 282 282 279 280 278 259 246 239 244 232 224 214 202 197 199 198 184 186 200 208 212 213 214 196 174 161 167 174 171 170 164 174 180 186